Time,TemperatureF,DewpointF,PressureIn,WindDirection,WindDirectionDegrees,WindSpeedMPH,WindSpeedGustMPH,Humidity,HourlyPrecipIn,Conditions,Clouds,dailyrainin,SoftwareType,DateUTC
2013-06-06 00:03:00,67.0,50.0,-100.00,NNW,328,0.0,8.0,59,0.00,,,-99.99,,2013-06-06 04:03:00,
2013-06-06 00:13:00,66.0,50.0,-100.00,NE,52,1.0,8.0,58,0.00,,,-99.99,,2013-06-06 04:13:00,
2013-06-06 00:23:00,66.0,50.0,-100.00,East,84,1.0,8.0,58,0.00,,,-99.99,,2013-06-06 04:23:00,
2013-06-06 00:33:00,68.0,52.0,-100.00,ENE,74,2.0,8.0,58,0.00,,,-99.99,,2013-06-06 04:33:00,
2013-06-06 00:42:00,65.0,48.0,-100.00,North,354,1.0,8.0,58,0.00,,,-99.99,,2013-06-06 04:42:00,
2013-06-06 00:53:00,66.0,48.0,-100.00,NNE,19,1.0,8.0,56,0.00,,,-99.99,,2013-06-06 04:53:00,
2013-06-06 01:02:00,65.0,48.0,-100.00,East,80,1.0,8.0,56,0.00,,,-99.99,,2013-06-06 05:02:00,
2013-06-06 01:12:00,64.0,54.0,-100.00,WNW,292,0.0,8.0,73,-99.99,,,-99.99,,2013-06-06 05:12:00,
2013-06-06 01:23:00,59.0,55.0,-100.00,NE,56,1.0,8.0,90,0.00,,,-99.99,,2013-06-06 05:23:00,
2013-06-06 01:32:00,60.0,55.0,-100.00,NE,48,2.0,8.0,84,0.00,,,-99.99,,2013-06-06 05:32:00,
2013-06-06 01:42:00,63.0,57.0,-100.00,West,271,1.0,8.0,86,0.00,,,-99.99,,2013-06-06 05:42:00,
2013-06-06 01:52:00,60.0,55.0,-100.00,ESE,110,0.0,8.0,86,0.00,,,-99.99,,2013-06-06 05:52:00,
2013-06-06 02:02:00,60.0,55.0,-100.00,WSW,245,0.0,8.0,89,2.83,,,-99.99,,2013-06-06 06:02:00,
2013-06-06 02:12:00,60.0,55.0,-100.00,East,83,0.0,8.0,89,4.53,,,-99.99,,2013-06-06 06:12:00,
2013-06-06 02:22:00,59.0,55.0,-100.00,SE,129,0.0,8.0,91,2.83,,,-99.99,,2013-06-06 06:22:00,
2013-06-06 02:33:00,60.0,57.0,-100.00,SW,216,0.0,8.0,93,4.53,,,-99.99,,2013-06-06 06:33:00,
2013-06-06 02:42:00,59.0,55.0,-100.00,SSE,160,1.0,8.0,93,18.70,,,-99.99,,2013-06-06 06:42:00,
2013-06-06 02:52:00,60.0,57.0,-100.00,SSW,204,0.0,8.0,93,31.18,,,-99.99,,2013-06-06 06:52:00,
2013-06-06 03:02:00,60.0,57.0,-100.00,ESE,122,0.0,8.0,94,31.18,,,-99.99,,2013-06-06 07:02:00,
2013-06-06 03:12:00,60.0,57.0,-100.00,South,186,0.0,8.0,94,0.00,,,-99.99,,2013-06-06 07:12:00,
2013-06-06 03:22:00,63.0,61.0,-100.00,SSE,149,0.0,8.0,95,0.00,,,-99.99,,2013-06-06 07:22:00,
2013-06-06 03:32:00,64.0,61.0,-100.00,South,177,0.0,8.0,95,0.00,,,-99.99,,2013-06-06 07:32:00,
2013-06-06 03:42:00,64.0,61.0,-100.00,SSW,193,1.0,8.0,95,0.00,,,-99.99,,2013-06-06 07:42:00,
2013-06-06 03:52:00,62.0,59.0,-100.00,NNE,24,0.0,8.0,94,4.53,,,-99.99,,2013-06-06 07:52:00,
2013-06-06 04:02:00,63.0,61.0,-100.00,East,94,0.0,0.0,94,1.14,,,-99.99,,2013-06-06 08:02:00,
2013-06-06 04:12:00,66.0,63.0,-100.00,SSE,152,0.0,0.0,95,1.14,,,-99.99,,2013-06-06 08:12:00,
2013-06-06 04:22:00,64.0,61.0,-100.00,ESE,107,0.0,0.0,94,0.00,,,-99.99,,2013-06-06 08:22:00,
2013-06-06 04:32:00,66.0,64.0,-100.00,South,179,0.0,0.0,95,0.00,,,-99.99,,2013-06-06 08:32:00,
2013-06-06 04:42:00,64.0,61.0,-100.00,SSE,151,0.0,0.0,94,0.00,,,-99.99,,2013-06-06 08:42:00,
2013-06-06 04:52:00,64.0,61.0,-100.00,NNW,327,0.0,0.0,94,0.00,,,-99.99,,2013-06-06 08:52:00,
2013-06-06 05:02:00,67.0,64.0,-100.00,ENE,70,0.0,0.0,95,0.00,,,-99.99,,2013-06-06 09:02:00,
2013-06-06 05:12:00,68.0,66.0,-100.00,South,187,0.0,0.0,95,0.00,,,-99.99,,2013-06-06 09:12:00,
2013-06-06 05:22:00,64.0,61.0,-100.00,SE,142,0.0,0.0,94,-99.99,,,-99.99,,2013-06-06 09:22:00,
2013-06-06 05:33:00,65.0,63.0,-100.00,SSE,148,0.0,0.0,94,17.01,,,-99.99,,2013-06-06 09:33:00,
2013-06-06 05:43:00,65.0,63.0,-100.00,SE,136,0.0,0.0,94,0.00,,,-99.99,,2013-06-06 09:43:00,
2013-06-06 05:53:00,65.0,63.0,-100.00,South,170,0.0,0.0,94,-99.99,,,-99.99,,2013-06-06 09:53:00,
2013-06-06 06:03:00,65.0,63.0,-100.00,SSE,152,0.0,0.0,94,-99.99,,,-99.99,,2013-06-06 10:03:00,
2013-06-06 06:12:00,65.0,63.0,-100.00,South,175,1.0,1.0,95,10.79,,,-99.99,,2013-06-06 10:12:00,
2013-06-06 06:23:00,65.0,63.0,-100.00,SSE,160,0.0,1.0,94,4.53,,,-99.99,,2013-06-06 10:23:00,
2013-06-06 06:33:00,65.0,63.0,-100.00,SSE,160,1.0,1.0,94,0.00,,,-99.99,,2013-06-06 10:33:00,
2013-06-06 06:42:00,65.0,63.0,-100.00,SSW,193,1.0,1.0,95,0.00,,,-99.99,,2013-06-06 10:42:00,
2013-06-06 06:52:00,66.0,63.0,-100.00,South,180,1.0,1.0,94,0.00,,,-99.99,,2013-06-06 10:52:00,
2013-06-06 07:02:00,66.0,63.0,-100.00,SSW,197,0.0,1.0,94,0.00,,,-99.99,,2013-06-06 11:02:00,
2013-06-06 07:12:00,66.0,63.0,-100.00,South,182,1.0,1.0,94,0.00,,,-99.99,,2013-06-06 11:12:00,
2013-06-06 07:23:00,66.0,63.0,-100.00,SSW,199,0.0,1.0,94,0.00,,,-99.99,,2013-06-06 11:23:00,
2013-06-06 07:32:00,66.0,64.0,-100.00,South,170,1.0,2.0,94,0.00,,,-99.99,,2013-06-06 11:32:00,
2013-06-06 07:42:00,66.0,63.0,-100.00,South,184,2.0,2.0,93,0.00,,,-99.99,,2013-06-06 11:42:00,
2013-06-06 07:52:00,66.0,63.0,-100.00,SSW,203,2.0,2.0,93,17.01,,,-99.99,,2013-06-06 11:52:00,
2013-06-06 08:03:00,66.0,63.0,-100.00,SSE,149,2.0,2.0,94,-99.99,,,-99.99,,2013-06-06 12:03:00,
2013-06-06 08:13:00,66.0,63.0,-100.00,SSW,211,2.0,2.0,94,7.36,,,-99.99,,2013-06-06 12:13:00,
2013-06-06 08:23:00,66.0,63.0,-100.00,SSW,207,2.0,4.0,94,9.06,,,-99.99,,2013-06-06 12:23:00,
2013-06-06 08:33:00,65.0,63.0,-100.00,SSW,193,2.0,4.0,94,2.83,,,-99.99,,2013-06-06 12:33:00,
2013-06-06 08:43:00,66.0,63.0,-100.00,South,187,2.0,4.0,94,-99.99,,,-99.99,,2013-06-06 12:43:00,
2013-06-06 08:52:00,66.0,63.0,-100.00,SSE,156,1.0,4.0,94,-99.99,,,-99.99,,2013-06-06 12:52:00,
2013-06-06 09:03:00,65.0,63.0,-100.00,South,183,2.0,4.0,94,2.83,,,-99.99,,2013-06-06 13:03:00,
2013-06-06 09:13:00,65.0,63.0,-100.00,SSW,193,1.0,4.0,94,0.00,,,-99.99,,2013-06-06 13:13:00,
2013-06-06 09:23:00,65.0,63.0,-100.00,SSW,197,1.0,4.0,94,4.53,,,-99.99,,2013-06-06 13:23:00,
2013-06-06 09:33:00,66.0,63.0,-100.00,SSW,200,1.0,4.0,94,4.53,,,-99.99,,2013-06-06 13:33:00,
2013-06-06 09:43:00,69.0,66.0,-100.00,NNE,19,0.0,4.0,95,4.53,,,-99.99,,2013-06-06 13:43:00,
2013-06-06 09:52:00,68.0,66.0,-100.00,WSW,255,0.0,4.0,95,4.53,,,-99.99,,2013-06-06 13:52:00,
2013-06-06 10:03:00,68.0,66.0,-100.00,WSW,252,1.0,4.0,97,0.00,,,-99.99,,2013-06-06 14:03:00,
2013-06-06 10:13:00,68.0,66.0,-100.00,West,266,0.0,4.0,95,4.53,,,-99.99,,2013-06-06 14:13:00,
2013-06-06 10:23:00,66.0,63.0,-100.00,SW,235,0.0,4.0,94,0.00,,,-99.99,,2013-06-06 14:23:00,
2013-06-06 10:33:00,68.0,66.0,-100.00,SW,227,0.0,4.0,95,0.00,,,-99.99,,2013-06-06 14:33:00,
2013-06-06 10:43:00,69.0,66.0,-100.00,WSW,245,0.0,4.0,95,0.00,,,-99.99,,2013-06-06 14:43:00,
2013-06-06 10:52:00,69.0,66.0,-100.00,SSW,206,1.0,4.0,95,0.00,,,-99.99,,2013-06-06 14:52:00,
2013-06-06 11:03:00,67.0,64.0,-100.00,SSW,197,1.0,4.0,93,0.00,,,-99.99,,2013-06-06 15:03:00,
2013-06-06 11:13:00,69.0,66.0,-100.00,SW,232,2.0,4.0,94,0.00,,,-99.99,,2013-06-06 15:13:00,
2013-06-06 11:23:00,68.0,64.0,-100.00,ESE,118,2.0,4.0,91,0.00,,,-99.99,,2013-06-06 15:23:00,
2013-06-06 11:33:00,68.0,64.0,-100.00,WSW,249,2.0,4.0,91,0.00,,,-99.99,,2013-06-06 15:33:00,
2013-06-06 11:43:00,68.0,64.0,-100.00,South,182,3.0,4.0,90,0.00,,,-99.99,,2013-06-06 15:43:00,
2013-06-06 11:53:00,68.0,63.0,-100.00,SW,234,4.0,4.0,89,0.00,,,-99.99,,2013-06-06 15:53:00,
2013-06-06 12:03:00,68.0,63.0,-100.00,SW,235,5.0,6.0,88,0.00,,,-99.99,,2013-06-06 16:03:00,
2013-06-06 12:13:00,68.0,64.0,-100.00,WSW,247,4.0,8.0,88,0.00,,,-99.99,,2013-06-06 16:13:00,
2013-06-06 12:23:00,68.0,64.0,-100.00,WSW,247,4.0,8.0,88,0.00,,,-99.99,,2013-06-06 16:23:00,
2013-06-06 12:33:00,68.0,63.0,-100.00,West,262,4.0,8.0,86,0.00,,,-99.99,,2013-06-06 16:33:00,
2013-06-06 12:44:00,69.0,63.0,-100.00,SW,220,5.0,8.0,86,0.00,,,-99.99,,2013-06-06 16:44:00,
2013-06-06 12:53:00,69.0,64.0,-100.00,SW,214,3.0,8.0,86,0.00,,,-99.99,,2013-06-06 16:53:00,
2013-06-06 13:03:00,70.0,64.0,-100.00,WSW,237,4.0,8.0,84,0.00,,,-99.99,,2013-06-06 17:03:00,
2013-06-06 13:13:00,69.0,64.0,-100.00,South,190,4.0,8.0,85,0.00,,,-99.99,,2013-06-06 17:13:00,
2013-06-06 13:23:00,70.0,64.0,-100.00,SSW,206,2.0,8.0,85,0.00,,,-99.99,,2013-06-06 17:23:00,
2013-06-06 13:33:00,69.0,63.0,-100.00,SSW,203,4.0,8.0,85,0.00,,,-99.99,,2013-06-06 17:33:00,
2013-06-06 13:43:00,69.0,63.0,-100.00,SW,218,4.0,8.0,85,0.00,,,-99.99,,2013-06-06 17:43:00,
2013-06-06 13:52:00,69.0,63.0,-100.00,West,262,3.0,8.0,85,0.00,,,-99.99,,2013-06-06 17:52:00,
2013-06-06 14:03:00,69.0,63.0,-100.00,WSW,254,1.0,8.0,85,0.00,,,-99.99,,2013-06-06 18:03:00,
2013-06-06 14:13:00,69.0,64.0,-100.00,North,11,1.0,8.0,88,0.00,,,-99.99,,2013-06-06 18:13:00,
2013-06-06 14:23:00,67.0,63.0,-100.00,North,7,2.0,8.0,90,0.00,,,-99.99,,2013-06-06 18:23:00,
2013-06-06 14:33:00,66.0,63.0,-100.00,NW,314,1.0,8.0,91,0.00,,,-99.99,,2013-06-06 18:33:00,
2013-06-06 14:43:00,69.0,66.0,-100.00,North,9,1.0,8.0,93,0.00,,,-99.99,,2013-06-06 18:43:00,
2013-06-06 14:53:00,67.0,63.0,-100.00,NNE,15,0.0,8.0,91,0.00,,,-99.99,,2013-06-06 18:53:00,
2013-06-06 15:03:00,67.0,63.0,-100.00,NW,324,1.0,8.0,91,0.00,,,-99.99,,2013-06-06 19:03:00,
2013-06-06 15:13:00,67.0,63.0,-100.00,NNE,15,2.0,8.0,90,0.00,,,-99.99,,2013-06-06 19:13:00,
2013-06-06 15:23:00,66.0,63.0,-100.00,NW,314,3.0,8.0,91,0.00,,,-99.99,,2013-06-06 19:23:00,
2013-06-06 15:33:00,68.0,64.0,-100.00,NE,35,4.0,8.0,93,0.00,,,-99.99,,2013-06-06 19:33:00,
2013-06-06 15:43:00,68.0,64.0,-100.00,North,8,2.0,8.0,93,0.00,,,-99.99,,2013-06-06 19:43:00,
2013-06-06 15:53:00,67.0,63.0,-100.00,NE,36,2.0,8.0,90,0.00,,,-99.99,,2013-06-06 19:53:00,
2013-06-06 16:03:00,69.0,66.0,-100.00,NNE,24,3.0,8.0,91,0.00,,,-99.99,,2013-06-06 20:03:00,
2013-06-06 16:13:00,66.0,63.0,-100.00,NNE,32,4.0,8.0,90,0.00,,,-99.99,,2013-06-06 20:13:00,
2013-06-06 16:23:00,66.0,63.0,-100.00,NNE,21,4.0,8.0,89,0.00,,,-99.99,,2013-06-06 20:23:00,
2013-06-06 16:33:00,67.0,63.0,-100.00,NNE,25,2.0,8.0,89,0.00,,,-99.99,,2013-06-06 20:33:00,
2013-06-06 16:43:00,67.0,63.0,-100.00,North,1,3.0,8.0,89,14.17,,,-99.99,,2013-06-06 20:43:00,
2013-06-06 16:53:00,69.0,64.0,-100.00,NNE,25,2.0,8.0,90,0.00,,,-99.99,,2013-06-06 20:53:00,
2013-06-06 17:03:00,66.0,63.0,-100.00,NNE,29,2.0,8.0,89,0.00,,,-99.99,,2013-06-06 21:03:00,
2013-06-06 17:13:00,67.0,63.0,-100.00,NE,53,3.0,8.0,88,4.53,,,-99.99,,2013-06-06 21:13:00,
2013-06-06 17:23:00,68.0,63.0,-100.00,NNE,15,2.0,8.0,85,0.00,,,-99.99,,2013-06-06 21:23:00,
2013-06-06 17:33:00,67.0,63.0,-100.00,NNW,345,4.0,8.0,85,0.00,,,-99.99,,2013-06-06 21:33:00,
2013-06-06 17:44:00,67.0,63.0,-100.00,NNW,347,2.0,8.0,86,0.00,,,-99.99,,2013-06-06 21:44:00,
2013-06-06 17:53:00,68.0,63.0,-100.00,NW,313,1.0,8.0,86,0.00,,,-99.99,,2013-06-06 21:53:00,
2013-06-06 18:03:00,68.0,63.0,-100.00,North,358,1.0,8.0,85,0.00,,,-99.99,,2013-06-06 22:03:00,
2013-06-06 18:13:00,69.0,64.0,-100.00,NNE,19,2.0,8.0,86,0.00,,,-99.99,,2013-06-06 22:13:00,
2013-06-06 18:23:00,67.0,63.0,-100.00,WNW,295,2.0,8.0,86,0.00,,,-99.99,,2013-06-06 22:23:00,
2013-06-06 18:33:00,67.0,61.0,-100.00,NW,320,2.0,8.0,86,0.00,,,-99.99,,2013-06-06 22:33:00,
2013-06-06 18:43:00,67.0,61.0,-100.00,North,350,1.0,8.0,86,0.00,,,-99.99,,2013-06-06 22:43:00,
2013-06-06 18:53:00,66.0,61.0,-100.00,NE,56,3.0,8.0,86,0.00,,,-99.99,,2013-06-06 22:53:00,
2013-06-06 19:03:00,66.0,61.0,-100.00,North,0,2.0,8.0,86,0.00,,,-99.99,,2013-06-06 23:03:00,
2013-06-06 19:13:00,69.0,64.0,-100.00,NNW,328,3.0,8.0,88,0.00,,,-99.99,,2013-06-06 23:13:00,
2013-06-06 19:22:00,68.0,64.0,-100.00,NNW,338,1.0,8.0,89,0.00,,,-99.99,,2013-06-06 23:22:00,
2013-06-06 19:33:00,68.0,63.0,-100.00,NW,320,1.0,8.0,89,0.00,,,-99.99,,2013-06-06 23:33:00,
2013-06-06 19:43:00,68.0,64.0,-100.00,North,7,1.0,8.0,90,0.00,,,-99.99,,2013-06-06 23:43:00,
2013-06-06 19:52:00,68.0,64.0,-100.00,NNW,340,2.0,8.0,90,0.00,,,-99.99,,2013-06-06 23:52:00,
2013-06-06 20:02:00,68.0,64.0,-100.00,NW,306,1.0,8.0,90,0.00,,,-99.99,,2013-06-07 00:02:00,
2013-06-06 20:13:00,67.0,63.0,-100.00,North,360,2.0,8.0,90,0.00,,,-99.99,,2013-06-07 00:13:00,
2013-06-06 20:22:00,67.0,63.0,-100.00,NNW,338,1.0,8.0,90,0.00,,,-99.99,,2013-06-07 00:22:00,
2013-06-06 20:32:00,66.0,63.0,-100.00,NNW,331,2.0,8.0,91,0.00,,,-99.99,,2013-06-07 00:32:00,
2013-06-06 20:42:00,65.0,63.0,-100.00,NNE,14,3.0,8.0,91,0.00,,,-99.99,,2013-06-07 00:42:00,
2013-06-06 20:52:00,65.0,63.0,-100.00,North,7,3.0,8.0,94,0.00,,,-99.99,,2013-06-07 00:52:00,
2013-06-06 21:03:00,64.0,61.0,-100.00,NNW,333,4.0,8.0,94,0.00,,,-99.99,,2013-06-07 01:03:00,
2013-06-06 21:12:00,65.0,63.0,-100.00,NW,317,2.0,8.0,94,0.00,,,-99.99,,2013-06-07 01:12:00,
2013-06-06 21:22:00,63.0,61.0,-100.00,WNW,290,3.0,8.0,94,0.00,,,-99.99,,2013-06-07 01:22:00,
2013-06-06 21:32:00,62.0,59.0,-100.00,North,355,3.0,8.0,94,0.00,,,-99.99,,2013-06-07 01:32:00,
2013-06-06 21:42:00,62.0,59.0,-100.00,NNE,14,3.0,8.0,95,0.00,,,-99.99,,2013-06-07 01:42:00,
2013-06-06 21:52:00,63.0,61.0,-100.00,North,352,3.0,8.0,94,0.00,,,-99.99,,2013-06-07 01:52:00,
2013-06-06 22:02:00,62.0,59.0,-100.00,NNE,29,2.0,8.0,94,0.00,,,-99.99,,2013-06-07 02:02:00,
2013-06-06 22:12:00,62.0,59.0,-100.00,NW,309,2.0,8.0,94,0.00,,,-99.99,,2013-06-07 02:12:00,
2013-06-06 22:22:00,61.0,59.0,-100.00,NNW,338,4.0,8.0,94,0.00,,,-99.99,,2013-06-07 02:22:00,
2013-06-06 22:32:00,61.0,59.0,-100.00,North,358,2.0,8.0,94,0.00,,,-99.99,,2013-06-07 02:32:00,
2013-06-06 22:42:00,61.0,59.0,-100.00,North,355,2.0,8.0,94,0.00,,,-99.99,,2013-06-07 02:42:00,
2013-06-06 22:52:00,61.0,57.0,-100.00,North,11,4.0,8.0,94,0.00,,,-99.99,,2013-06-07 02:52:00,
2013-06-06 23:02:00,61.0,57.0,-100.00,NNW,345,2.0,8.0,94,0.00,,,-99.99,,2013-06-07 03:02:00,
2013-06-06 23:12:00,60.0,57.0,-100.00,NE,35,2.0,8.0,94,0.00,,,-99.99,,2013-06-07 03:12:00,
2013-06-06 23:22:00,60.0,57.0,-100.00,NNW,348,2.0,8.0,94,0.00,,,-99.99,,2013-06-07 03:22:00,
2013-06-06 23:33:00,60.0,57.0,-100.00,WNW,282,2.0,8.0,95,0.00,,,-99.99,,2013-06-07 03:33:00,
2013-06-06 23:43:00,59.0,57.0,-100.00,NNE,14,1.0,8.0,95,0.00,,,-99.99,,2013-06-07 03:43:00,
2013-06-06 23:53:00,60.0,57.0,-100.00,North,357,1.0,8.0,95,0.00,,,-99.99,,2013-06-07 03:53:00,